Regional Weather Roundup
Issued by NWS

Home | Current Version | Previous Version | Text Only | Print | Product List | Glossary On
Versions: 1 2 3 4 5 6 7 8 9 10 11 12 13 14 15 16 17 18 19 20 21 22 23 24 25 26 27 28 29 30 31 32 33 34 35 36 37 38 39 40 41 42 43 44 45 46 47 48 49 50
000
ASUS44 KJAN 271010
RWRMS

MISSISSIPPI HOURLY WEATHER ROUNDUP
NATIONAL WEATHER SERVICE JACKSON MS
500 AM CDT FRI MAY 27 2016

NOTE: "FAIR: INDICATES FEW OR NO CLOUDS BELOW 12,000 FEET WITH NO
SIGNIFICANT WEATHER AND/OR OBSTRUCTIONS TO VISIBILITY.

MSZ001>002-007>008-010>013-018>021-025>028-034>036-271100-
NORTHWEST MISSISSIPPI

CITY           SKY/WX    TMP DP  RH WIND       PRES   REMARKS
BATESVILLE     FAIR      74  67  78 SE7       29.95R
CLARKSDALE     MOCLDY    75  73  94 SE14      29.89F
CLEVELAND      PTSUNNY   75  73  94 SE13      29.90R
GREENWOOD      CLOUDY    75  67  76 SE8       29.94R
GREENVILLE     CLOUDY    76  69  79 SE12G20   29.89S
OLIVE BRANCH   PTCLDY    72  72 100 S9        29.93R
OXFORD         FAIR      72  64  78 S7        29.98R
TUNICA         DRIZZLE   72  68  88 SE9       29.91S
WINONA         FAIR      72  68  87 SE5       29.96R
$$

MSZ003>006-009-014>017-022>024-029>033-037>039-271100-
NORTHEAST MISSISSIPPI

CITY           SKY/WX    TMP DP  RH WIND       PRES   REMARKS
COLUMBUS AFB   CLOUDY    69  65  86 S2        30.00R
CORINTH        FAIR      68  61  77 SE6       29.97S
GOLDN TRIANGLE MOCLDY    70  63  78 SE7       30.00R
STARKVILLE     FAIR      68  64  88 SE5       29.98S
TUPELO         MOCLDY    71  62  73 SE6       29.98S
$$

MSZ040-058-271100-
CENTRAL MISSISSIPPI

CITY           SKY/WX    TMP DP  RH WIND       PRES   REMARKS
JACKSON INTL   CLOUDY    74  69  85 S10       29.94S
JACKSON HAWKNS CLOUDY    73  69  87 S7        29.95R
MADISON        FAIR      72  68  88 SE3       29.95R
MERIDIAN KEY   CLOUDY    73  68  84 S5        30.00S
MERIDIAN NAS   CLOUDY    70  65  84 SE5       30.01R
VICKSBURG TVR  LGT RAIN  76  71  85 SE9       29.91R
VICKSBURG VKS  CLOUDY    75  72  88 S10G16    29.91S
$$

MSZ059>079-271100-
SOUTH MISSISSIPPI

CITY           SKY/WX    TMP DP  RH WIND       PRES   REMARKS
BROOKHAVEN     FAIR     N/A N/A N/A SE9       29.96S
COLUMBIA       FAIR      73  70  88 SE5       30.00R
HATTIESBURG    MOCLDY    73  70  90 SE5       29.99R
MCCOMB         CLOUDY    74  70  87 SE8       29.95S
NATCHEZ        CLOUDY    73  70  88 S12       29.92R
PINE BELT      CLOUDY    72  66  83 SE5       29.99R
$$

MSZ080>082-271100-
COASTAL MISSISSIPPI

CITY           SKY/WX    TMP DP  RH WIND       PRES   REMARKS
BILOXI         MOCLDY    79  70  74 S12       29.96S
PASCAGOULA     CLOUDY    73  71  93 CALM      29.98S
GULFPORT       MOCLDY    79  70  74 S9        29.96R
$$




USA.gov is the U.S. government's official web portal to all federal, state and local government web resources and services.